TimeEST,TemperatureF,Dew PointF,Humidity,Sea Level PressureIn,VisibilityMPH,Wind Direction,Wind SpeedMPH,Gust SpeedMPH,PrecipitationIn,Events,Conditions,WindDirDegrees,DateUTC
12:54 AM,28.9,25.0,85,30.16,10.0,Calm,Calm,-,N/A,,Clear,0,2013-01-20 05:54:00
1:54 AM,28.9,26.1,89,30.14,10.0,NW,4.6,-,N/A,,Clear,320,2013-01-20 06:54:00
2:54 AM,28.9,27.0,92,30.13,10.0,Calm,Calm,-,N/A,,Clear,0,2013-01-20 07:54:00
3:54 AM,30.9,27.0,85,30.13,10.0,NNW,9.2,-,N/A,,Clear,340,2013-01-20 08:54:00
4:54 AM,30.0,26.1,85,30.13,10.0,NNW,6.9,-,N/A,,Clear,340,2013-01-20 09:54:00
5:54 AM,37.0,23.0,57,30.11,10.0,North,4.6,-,N/A,,Clear,360,2013-01-20 10:54:00
6:54 AM,32.0,24.1,73,30.13,10.0,Calm,Calm,-,N/A,,Clear,0,2013-01-20 11:54:00
7:54 AM,30.9,24.1,76,30.15,10.0,Calm,Calm,-,N/A,,Clear,0,2013-01-20 12:54:00
8:54 AM,41.0,26.1,55,30.14,10.0,Calm,Calm,-,N/A,,Clear,0,2013-01-20 13:54:00
9:54 AM,45.0,28.0,52,30.14,10.0,North,8.1,-,N/A,,Clear,360,2013-01-20 14:54:00
10:54 AM,48.9,30.0,48,30.14,10.0,North,6.9,16.1,N/A,,Clear,10,2013-01-20 15:54:00
11:54 AM,52.0,30.9,45,30.11,10.0,North,11.5,-,N/A,,Clear,360,2013-01-20 16:54:00
12:54 PM,53.1,30.9,43,30.09,10.0,North,11.5,-,N/A,,Clear,350,2013-01-20 17:54:00
1:54 PM,54.0,30.9,41,30.07,10.0,North,16.1,-,N/A,,Clear,350,2013-01-20 18:54:00
2:54 PM,55.9,28.9,36,30.05,10.0,North,8.1,17.3,N/A,,Clear,350,2013-01-20 19:54:00
3:54 PM,55.4,28.4,36,30.05,10.0,North,11.5,-,N/A,,Clear,360,2013-01-20 20:54:00
4:54 PM,53.1,27.0,37,30.08,10.0,North,12.7,21.9,N/A,,Clear,360,2013-01-20 21:54:00
5:54 PM,50.0,28.0,43,30.09,10.0,North,6.9,-,N/A,,Clear,360,2013-01-20 22:54:00
6:54 PM,46.9,28.9,50,30.11,10.0,North,5.8,-,N/A,,Clear,350,2013-01-20 23:54:00
7:54 PM,44.1,28.9,55,30.12,10.0,North,4.6,-,N/A,,Clear,350,2013-01-21 00:54:00
8:54 PM,39.0,28.9,67,30.12,10.0,NNW,8.1,-,N/A,,Clear,340,2013-01-21 01:54:00
9:54 PM,37.9,28.0,68,30.12,10.0,Calm,Calm,-,N/A,,Clear,0,2013-01-21 02:54:00
10:54 PM,36.0,28.0,73,30.11,10.0,Calm,Calm,-,N/A,,Clear,0,2013-01-21 03:54:00
11:54 PM,34.0,28.9,82,30.10,10.0,Calm,Calm,-,N/A,,Clear,0,2013-01-21 04:54:00